Year,Month,Day,Hour,Minute,Value (Times are PST for insolation in W/m^2)
2013,12,03,00,00,0.00
2013,12,03,00,01,0.00
2013,12,03,00,02,0.00
2013,12,03,00,03,0.00
2013,12,03,00,04,0.00
2013,12,03,00,05,0.00
2013,12,03,00,06,0.00
2013,12,03,00,07,0.00
2013,12,03,00,08,0.00
2013,12,03,00,09,0.00
2013,12,03,00,10,0.00
2013,12,03,00,11,0.00
2013,12,03,00,12,0.00
2013,12,03,00,13,0.00
2013,12,03,00,14,0.00
2013,12,03,00,15,0.00
2013,12,03,00,16,0.00
2013,12,03,00,17,0.00
2013,12,03,00,18,0.00
2013,12,03,00,19,0.00
2013,12,03,00,20,0.00
2013,12,03,00,21,0.00
2013,12,03,00,22,0.00
2013,12,03,00,23,0.00
2013,12,03,00,24,0.00
2013,12,03,00,25,0.00
2013,12,03,00,26,0.00
2013,12,03,00,27,0.00
2013,12,03,00,28,0.00
2013,12,03,00,29,0.00
2013,12,03,00,30,0.00
2013,12,03,00,31,0.00
2013,12,03,00,32,0.00
2013,12,03,00,33,0.00
2013,12,03,00,34,0.00
2013,12,03,00,35,0.00
2013,12,03,00,36,0.00
2013,12,03,00,37,0.00
2013,12,03,00,38,0.00
2013,12,03,00,39,0.00
2013,12,03,00,40,0.00
2013,12,03,00,41,0.00
2013,12,03,00,42,0.00
2013,12,03,00,43,0.00
2013,12,03,00,44,0.00
2013,12,03,00,45,0.00
2013,12,03,00,46,0.00
2013,12,03,00,47,0.00
2013,12,03,00,48,0.00
2013,12,03,00,49,0.00
2013,12,03,00,50,0.00
2013,12,03,00,51,0.00
2013,12,03,00,52,0.00
2013,12,03,00,53,0.00
2013,12,03,00,54,0.00
2013,12,03,00,55,0.00
2013,12,03,00,56,0.00
2013,12,03,00,57,0.00
2013,12,03,00,58,0.00
2013,12,03,00,59,0.00
2013,12,03,01,00,0.00
2013,12,03,01,01,0.00
2013,12,03,01,02,0.00
2013,12,03,01,03,0.00
2013,12,03,01,04,0.00
2013,12,03,01,05,0.00
2013,12,03,01,06,0.00
2013,12,03,01,07,0.00
2013,12,03,01,08,0.00
2013,12,03,01,09,0.00
2013,12,03,01,10,0.00
2013,12,03,01,11,0.00
2013,12,03,01,12,0.00
2013,12,03,01,13,0.00
2013,12,03,01,14,0.00
2013,12,03,01,15,0.00
2013,12,03,01,16,0.00
2013,12,03,01,17,0.00
2013,12,03,01,18,0.00
2013,12,03,01,19,0.00
2013,12,03,01,20,0.00
2013,12,03,01,21,0.00
2013,12,03,01,22,0.00
2013,12,03,01,23,0.00
2013,12,03,01,24,0.00
2013,12,03,01,25,0.00
2013,12,03,01,26,0.00
2013,12,03,01,27,0.00
2013,12,03,01,28,0.00
2013,12,03,01,29,0.00
2013,12,03,01,30,0.00
2013,12,03,01,31,0.00
2013,12,03,01,32,0.00
2013,12,03,01,33,0.00
2013,12,03,01,34,0.00
2013,12,03,01,35,0.00
2013,12,03,01,36,0.00
2013,12,03,01,37,0.00
2013,12,03,01,38,0.00
2013,12,03,01,39,0.00
2013,12,03,01,40,0.00
2013,12,03,01,41,0.00
2013,12,03,01,42,0.00
2013,12,03,01,43,0.00
2013,12,03,01,44,0.00
2013,12,03,01,45,0.00
2013,12,03,01,46,0.00
2013,12,03,01,47,0.00
2013,12,03,01,48,0.00
2013,12,03,01,49,0.00
2013,12,03,01,50,0.00
2013,12,03,01,51,0.00
2013,12,03,01,52,0.00
2013,12,03,01,53,0.00
2013,12,03,01,54,0.00
2013,12,03,01,55,0.00
2013,12,03,01,56,0.00
2013,12,03,01,57,0.00
2013,12,03,01,58,0.00
2013,12,03,01,59,0.00
2013,12,03,02,00,0.00
2013,12,03,02,01,0.00
2013,12,03,02,02,0.00
2013,12,03,02,03,0.00
2013,12,03,02,04,0.00
2013,12,03,02,05,0.00
2013,12,03,02,06,0.00
2013,12,03,02,07,0.00
2013,12,03,02,08,0.00
2013,12,03,02,09,0.00
2013,12,03,02,10,0.00
2013,12,03,02,11,0.00
2013,12,03,02,12,0.00
2013,12,03,02,13,0.00
2013,12,03,02,14,0.00
2013,12,03,02,15,0.00
2013,12,03,02,16,0.00
2013,12,03,02,17,0.00
2013,12,03,02,18,0.00
2013,12,03,02,19,0.00
2013,12,03,02,20,0.00
2013,12,03,02,21,0.00
2013,12,03,02,22,0.00
2013,12,03,02,23,0.00
2013,12,03,02,24,0.00
2013,12,03,02,25,0.00
2013,12,03,02,26,0.00
2013,12,03,02,27,0.00
2013,12,03,02,28,0.00
2013,12,03,02,29,0.00
2013,12,03,02,30,0.00
2013,12,03,02,31,0.00
2013,12,03,02,32,0.00
2013,12,03,02,33,0.00
2013,12,03,02,34,0.00
2013,12,03,02,35,0.00
2013,12,03,02,36,0.00
2013,12,03,02,37,0.00
2013,12,03,02,38,0.00
2013,12,03,02,39,0.00
2013,12,03,02,40,0.00
2013,12,03,02,41,0.00
2013,12,03,02,42,0.00
2013,12,03,02,43,0.00
2013,12,03,02,44,0.00
2013,12,03,02,45,0.00
2013,12,03,02,46,0.00
2013,12,03,02,47,0.00
2013,12,03,02,48,0.00
2013,12,03,02,49,0.00
2013,12,03,02,50,0.00
2013,12,03,02,51,0.00
2013,12,03,02,52,0.00
2013,12,03,02,53,0.00
2013,12,03,02,54,0.00
2013,12,03,02,55,0.00
2013,12,03,02,56,0.00
2013,12,03,02,57,0.00
2013,12,03,02,58,0.00
2013,12,03,02,59,0.00
2013,12,03,03,00,0.00
2013,12,03,03,01,0.00
2013,12,03,03,02,0.00
2013,12,03,03,06,0.00
2013,12,03,03,07,0.00
2013,12,03,03,08,0.00
2013,12,03,03,09,0.00
2013,12,03,03,10,0.00
2013,12,03,03,11,0.00
2013,12,03,03,12,0.00
2013,12,03,03,13,0.00
2013,12,03,03,14,0.00
2013,12,03,03,15,0.00
2013,12,03,03,16,0.00
2013,12,03,03,17,0.00
2013,12,03,03,18,0.00
2013,12,03,03,19,0.00
2013,12,03,03,20,0.00
2013,12,03,03,21,0.00
2013,12,03,03,22,0.00
2013,12,03,03,23,0.00
2013,12,03,03,24,0.00
2013,12,03,03,25,0.00
2013,12,03,03,26,0.00
2013,12,03,03,27,0.00
2013,12,03,03,28,0.00
2013,12,03,03,29,0.00
2013,12,03,03,30,0.00
2013,12,03,03,31,0.00
2013,12,03,03,32,0.00
2013,12,03,03,33,0.00
2013,12,03,03,34,0.00
2013,12,03,03,35,0.00
2013,12,03,03,36,0.00
2013,12,03,03,37,0.00
2013,12,03,03,38,0.00
2013,12,03,03,39,0.00
2013,12,03,03,40,0.00
2013,12,03,03,41,0.00
2013,12,03,03,42,0.00
2013,12,03,03,43,0.00
2013,12,03,03,44,0.00
2013,12,03,03,45,0.00
2013,12,03,03,46,0.00
2013,12,03,03,47,0.00
2013,12,03,03,48,0.00
2013,12,03,03,49,0.00
2013,12,03,03,50,0.00
2013,12,03,03,51,0.00
2013,12,03,03,52,0.00
2013,12,03,03,53,0.00
2013,12,03,03,54,0.00
2013,12,03,03,55,0.00
2013,12,03,03,56,0.00
2013,12,03,03,57,0.00
2013,12,03,03,58,0.00
2013,12,03,03,59,0.00
2013,12,03,04,00,0.00
2013,12,03,04,01,0.00
2013,12,03,04,02,0.00
2013,12,03,04,03,0.00
2013,12,03,04,04,0.00
2013,12,03,04,05,0.00
2013,12,03,04,06,0.00
2013,12,03,04,07,0.00
2013,12,03,04,08,0.00
2013,12,03,04,09,0.00
2013,12,03,04,10,0.00
2013,12,03,04,11,0.00
2013,12,03,04,12,0.00
2013,12,03,04,13,0.00
2013,12,03,04,14,0.00
2013,12,03,04,15,0.00
2013,12,03,04,16,0.00
2013,12,03,04,17,0.00
2013,12,03,04,18,0.00
2013,12,03,04,19,0.00
2013,12,03,04,20,0.00
2013,12,03,04,21,0.00
2013,12,03,04,22,0.00
2013,12,03,04,23,0.00
2013,12,03,04,24,0.00
2013,12,03,04,25,0.00
2013,12,03,04,26,0.00
2013,12,03,04,27,0.00
2013,12,03,04,28,0.00
2013,12,03,04,29,0.00
2013,12,03,04,30,0.00
2013,12,03,04,31,0.00
2013,12,03,04,32,0.00
2013,12,03,04,33,0.00
2013,12,03,04,34,0.00
2013,12,03,04,35,0.00
2013,12,03,04,36,0.00
2013,12,03,04,37,0.00
2013,12,03,04,38,0.00
2013,12,03,04,39,0.00
2013,12,03,04,40,0.00
2013,12,03,04,41,0.00
2013,12,03,04,42,0.00
2013,12,03,04,43,0.00
2013,12,03,04,44,0.00
2013,12,03,04,45,0.00
2013,12,03,04,46,0.00
2013,12,03,04,47,0.00
2013,12,03,04,48,0.00
2013,12,03,04,49,0.00
2013,12,03,04,50,0.00
2013,12,03,04,51,0.00
2013,12,03,04,52,0.00
2013,12,03,04,53,0.00
2013,12,03,04,54,0.00
2013,12,03,04,55,0.00
2013,12,03,04,56,0.00
2013,12,03,04,57,0.00
2013,12,03,04,58,0.00
2013,12,03,04,59,0.00
2013,12,03,05,00,0.00
2013,12,03,05,01,0.00
2013,12,03,05,02,0.00
2013,12,03,05,03,0.00
2013,12,03,05,04,0.00
2013,12,03,05,05,0.00
2013,12,03,05,06,0.00
2013,12,03,05,07,0.00
2013,12,03,05,08,0.00
2013,12,03,05,09,0.00
2013,12,03,05,10,0.00
2013,12,03,05,11,0.00
2013,12,03,05,12,0.00
2013,12,03,05,13,0.00
2013,12,03,05,14,0.00
2013,12,03,05,15,0.00
2013,12,03,05,16,0.00
2013,12,03,05,17,0.00
2013,12,03,05,18,0.00
2013,12,03,05,19,0.00
2013,12,03,05,20,0.00
2013,12,03,05,21,0.00
2013,12,03,05,22,0.00
2013,12,03,05,23,0.00
2013,12,03,05,24,0.00
2013,12,03,05,25,0.00
2013,12,03,05,26,0.00
2013,12,03,05,27,0.00
2013,12,03,05,28,0.00
2013,12,03,05,29,0.00
2013,12,03,05,30,0.00
2013,12,03,05,31,0.00
2013,12,03,05,32,0.00
2013,12,03,05,33,0.00
2013,12,03,05,34,0.00
2013,12,03,05,35,0.00
2013,12,03,05,36,0.00
2013,12,03,05,37,0.00
2013,12,03,05,38,0.00
2013,12,03,05,39,0.00
2013,12,03,05,40,0.00
2013,12,03,05,41,0.00
2013,12,03,05,42,0.00
2013,12,03,05,43,0.00
2013,12,03,05,44,0.00
2013,12,03,05,45,0.00
2013,12,03,05,46,0.00
2013,12,03,05,47,0.00
2013,12,03,05,48,0.00
2013,12,03,05,49,0.00
2013,12,03,05,50,0.00
2013,12,03,05,51,0.00
2013,12,03,05,52,0.00
2013,12,03,05,53,0.00
2013,12,03,05,54,0.00
2013,12,03,05,55,0.00
2013,12,03,05,56,0.00
2013,12,03,05,57,0.00
2013,12,03,05,58,0.00
2013,12,03,05,59,0.00
2013,12,03,06,00,0.00
2013,12,03,06,01,0.00
2013,12,03,06,02,0.00
2013,12,03,06,03,0.00
2013,12,03,06,04,0.00
2013,12,03,06,05,0.00
2013,12,03,06,06,0.00
2013,12,03,06,07,0.00
2013,12,03,06,08,0.00
2013,12,03,06,09,0.00
2013,12,03,06,10,0.00
2013,12,03,06,11,0.00
2013,12,03,06,12,0.00
2013,12,03,06,13,0.00
2013,12,03,06,14,0.00
2013,12,03,06,15,0.00
2013,12,03,06,16,0.00
2013,12,03,06,17,0.00
2013,12,03,06,18,0.00
2013,12,03,06,19,0.00
2013,12,03,06,20,0.00
2013,12,03,06,21,0.00
2013,12,03,06,22,0.00
2013,12,03,06,23,0.00
2013,12,03,06,24,0.00
2013,12,03,06,25,0.00
2013,12,03,06,26,0.00
2013,12,03,06,27,0.00
2013,12,03,06,28,0.00
2013,12,03,06,29,0.00
2013,12,03,06,30,0.00
2013,12,03,06,31,0.00
2013,12,03,06,32,0.00
2013,12,03,06,33,0.00
2013,12,03,06,34,0.00
2013,12,03,06,35,0.00
2013,12,03,06,36,0.00
2013,12,03,06,37,0.00
2013,12,03,06,38,0.00
2013,12,03,06,39,0.00
2013,12,03,06,40,0.00
2013,12,03,06,41,0.00
2013,12,03,06,42,0.00
2013,12,03,06,43,0.00
2013,12,03,06,44,0.00
2013,12,03,06,45,0.00
2013,12,03,06,46,0.00
2013,12,03,06,47,0.00
2013,12,03,06,48,0.00
2013,12,03,06,49,0.00
2013,12,03,06,50,0.00
2013,12,03,06,51,0.00
2013,12,03,06,52,0.00
2013,12,03,06,53,0.00
2013,12,03,06,54,0.00
2013,12,03,06,55,0.00
2013,12,03,06,56,0.00
2013,12,03,06,57,0.00
2013,12,03,06,58,0.00
2013,12,03,06,59,0.00
2013,12,03,07,00,0.00
2013,12,03,07,01,0.00
2013,12,03,07,02,0.00
2013,12,03,07,03,0.00
2013,12,03,07,04,0.00
2013,12,03,07,05,0.00
2013,12,03,07,06,0.00
2013,12,03,07,07,0.00
2013,12,03,07,08,0.00
2013,12,03,07,09,0.00
2013,12,03,07,10,0.00
2013,12,03,07,11,0.00
2013,12,03,07,12,0.00
2013,12,03,07,13,0.00
2013,12,03,07,14,0.00
2013,12,03,07,15,0.00
2013,12,03,07,16,0.00
2013,12,03,07,17,0.00
2013,12,03,07,18,0.00
2013,12,03,07,19,0.00
2013,12,03,07,20,0.00
2013,12,03,07,21,0.00
2013,12,03,07,22,0.00
2013,12,03,07,23,0.00
2013,12,03,07,24,0.00
2013,12,03,07,25,0.00
2013,12,03,07,26,0.00
2013,12,03,07,27,0.00
2013,12,03,07,28,0.00
2013,12,03,07,29,0.00
2013,12,03,07,30,0.00
2013,12,03,07,31,0.00
2013,12,03,07,32,0.00
2013,12,03,07,33,0.00
2013,12,03,07,34,0.00
2013,12,03,07,35,0.00
2013,12,03,07,36,0.00
2013,12,03,07,37,0.00
2013,12,03,07,38,0.00
2013,12,03,07,39,0.00
2013,12,03,07,40,0.00
2013,12,03,07,41,0.00
2013,12,03,07,42,0.00
2013,12,03,07,43,0.00
2013,12,03,07,44,0.00
2013,12,03,07,45,0.00
2013,12,03,07,46,0.00
2013,12,03,07,47,0.00
2013,12,03,07,48,0.00
2013,12,03,07,49,0.00
2013,12,03,07,50,0.00
2013,12,03,07,51,0.00
2013,12,03,07,52,0.00
2013,12,03,07,53,1.50
2013,12,03,07,54,5.00
2013,12,03,07,55,5.00
2013,12,03,07,56,5.00
2013,12,03,07,57,5.00
2013,12,03,07,58,6.10
2013,12,03,07,59,7.00
2013,12,03,08,00,7.00
2013,12,03,08,01,7.00
2013,12,03,08,02,7.00
2013,12,03,08,03,8.50
2013,12,03,08,04,9.00
2013,12,03,08,05,9.00
2013,12,03,08,06,9.00
2013,12,03,08,07,9.00
2013,12,03,08,08,9.00
2013,12,03,08,09,9.10
2013,12,03,08,10,11.00
2013,12,03,08,11,11.00
2013,12,03,08,12,11.00
2013,12,03,08,13,11.00
2013,12,03,08,14,11.20
2013,12,03,08,15,12.00
2013,12,03,08,16,12.00
2013,12,03,08,17,12.00
2013,12,03,08,18,12.00
2013,12,03,08,19,12.80
2013,12,03,08,20,14.00
2013,12,03,08,21,14.00
2013,12,03,08,22,14.00
2013,12,03,08,23,14.00
2013,12,03,08,24,14.00
2013,12,03,08,25,14.00
2013,12,03,08,26,14.00
2013,12,03,08,27,15.50
2013,12,03,08,28,16.00
2013,12,03,08,29,16.00
2013,12,03,08,30,16.00
2013,12,03,08,31,16.00
2013,12,03,08,32,16.00
2013,12,03,08,33,16.20
2013,12,03,08,34,18.00
2013,12,03,08,35,18.00
2013,12,03,08,36,18.00
2013,12,03,08,37,18.00
2013,12,03,08,38,18.30
2013,12,03,08,39,19.00
2013,12,03,08,40,19.00
2013,12,03,08,41,19.00
2013,12,03,08,42,19.00
2013,12,03,08,43,20.00
2013,12,03,08,44,21.00
2013,12,03,08,45,21.00
2013,12,03,08,46,21.00
2013,12,03,08,47,21.00
2013,12,03,08,48,22.40
2013,12,03,08,49,23.00
2013,12,03,08,50,23.00
2013,12,03,08,51,23.00
2013,12,03,08,52,23.00
2013,12,03,08,53,25.70
2013,12,03,08,54,34.50
2013,12,03,08,55,36.90
2013,12,03,08,56,39.00
2013,12,03,08,57,40.20
2013,12,03,08,58,42.00
2013,12,03,08,59,42.30
2013,12,03,09,00,44.50
2013,12,03,09,01,46.20
2013,12,03,09,02,47.70
2013,12,03,09,03,49.70
2013,12,03,09,04,51.80
2013,12,03,09,05,53.50
2013,12,03,09,06,54.00
2013,12,03,09,07,53.50
2013,12,03,09,08,53.00
2013,12,03,09,09,54.80
2013,12,03,09,10,59.80
2013,12,03,09,11,62.70
2013,12,03,09,12,64.50
2013,12,03,09,13,66.50
2013,12,03,09,14,68.60
2013,12,03,09,15,69.80
2013,12,03,09,16,73.60
2013,12,03,09,17,74.00
2013,12,03,09,18,76.00
2013,12,03,09,19,77.10
2013,12,03,09,20,79.20
2013,12,03,09,21,81.30
2013,12,03,09,22,83.20
2013,12,03,09,23,84.40
2013,12,03,09,24,86.50
2013,12,03,09,25,88.60
2013,12,03,09,26,90.30
2013,12,03,09,27,92.60
2013,12,03,09,28,95.90
2013,12,03,09,29,97.50
2013,12,03,09,30,99.10
2013,12,03,09,31,101.10
2013,12,03,09,32,103.20
2013,12,03,09,33,104.70
2013,12,03,09,34,106.40
2013,12,03,09,35,108.40
2013,12,03,09,36,110.50
2013,12,03,09,37,112.60
2013,12,03,09,38,113.90
2013,12,03,09,39,117.60
2013,12,03,09,40,119.90
2013,12,03,09,41,121.10
2013,12,03,09,42,123.10
2013,12,03,09,43,125.20
2013,12,03,09,44,127.20
2013,12,03,09,45,128.40
2013,12,03,09,46,130.50
2013,12,03,09,47,132.50
2013,12,03,09,48,134.30
2013,12,03,09,49,135.70
2013,12,03,09,50,137.80
2013,12,03,09,51,139.90
2013,12,03,09,52,141.50
2013,12,03,09,53,144.20
2013,12,03,09,54,147.20
2013,12,03,09,55,148.60
2013,12,03,09,56,150.30
2013,12,03,09,57,152.40
2013,12,03,09,58,154.50
2013,12,03,09,59,155.80
2013,12,03,10,00,157.60
2013,12,03,10,01,159.80
2013,12,03,10,02,162.70
2013,12,03,10,03,163.00
2013,12,03,10,04,167.10
2013,12,03,10,05,169.20
2013,12,03,10,06,171.10
2013,12,03,10,07,172.30
2013,12,03,10,08,174.40
2013,12,03,10,09,175.50
2013,12,03,10,10,175.10
2013,12,03,10,11,178.00
2013,12,03,10,12,178.40
2013,12,03,10,13,180.60
2013,12,03,10,14,182.10
2013,12,03,10,15,181.00
2013,12,03,10,16,183.00
2013,12,03,10,17,185.60
2013,12,03,10,18,187.20
2013,12,03,10,19,190.60
2013,12,03,10,20,190.60
2013,12,03,10,21,191.50
2013,12,03,10,22,194.40
2013,12,03,10,23,196.60
2013,12,03,10,24,198.70
2013,12,03,10,25,199.90
2013,12,03,10,26,201.90
2013,12,03,10,27,203.90
2013,12,03,10,28,206.10
2013,12,03,10,29,209.20
2013,12,03,10,30,211.30
2013,12,03,10,31,213.20
2013,12,03,10,32,214.00
2013,12,03,10,33,214.50
2013,12,03,10,34,216.60
2013,12,03,10,35,219.10
2013,12,03,10,36,221.00
2013,12,03,10,37,221.90
2013,12,03,10,38,223.90
2013,12,03,10,39,226.10
2013,12,03,10,40,228.10
2013,12,03,10,41,229.60
2013,12,03,10,42,231.30
2013,12,03,10,43,233.40
2013,12,03,10,44,234.00
2013,12,03,10,45,235.60
2013,12,03,10,46,236.80
2013,12,03,10,47,237.00
2013,12,03,10,48,240.60
2013,12,03,10,49,241.00
2013,12,03,10,50,243.00
2013,12,03,10,51,243.10
2013,12,03,10,52,244.20
2013,12,03,10,53,246.30
2013,12,03,10,54,248.40
2013,12,03,10,55,250.20
2013,12,03,10,56,251.00
2013,12,03,10,57,251.60
2013,12,03,10,58,253.00
2013,12,03,10,59,253.80
2013,12,03,11,00,255.80
2013,12,03,11,01,257.00
2013,12,03,11,02,257.50
2013,12,03,11,03,258.00
2013,12,03,11,04,259.30
2013,12,03,11,05,260.00
2013,12,03,11,06,261.30
2013,12,03,11,07,263.50
2013,12,03,11,08,264.00
2013,12,03,11,09,264.00
2013,12,03,11,10,266.70
2013,12,03,11,11,267.00
2013,12,03,11,12,267.00
2013,12,03,11,13,269.00
2013,12,03,11,14,269.10
2013,12,03,11,15,271.00
2013,12,03,11,16,271.20
2013,12,03,11,17,272.40
2013,12,03,11,18,274.00
2013,12,03,11,19,274.50
2013,12,03,11,20,276.00
2013,12,03,11,21,276.70
2013,12,03,11,22,278.00
2013,12,03,11,23,278.00
2013,12,03,11,24,278.00
2013,12,03,11,25,277.00
2013,12,03,11,26,277.10
2013,12,03,11,27,278.00
2013,12,03,11,28,276.80
2013,12,03,11,29,277.30
2013,12,03,11,30,278.00
2013,12,03,11,31,276.40
2013,12,03,11,32,277.70
2013,12,03,11,33,278.90
2013,12,03,11,34,279.00
2013,12,03,11,35,280.90
2013,12,03,11,36,285.00
2013,12,03,11,37,286.90
2013,12,03,11,38,285.00
2013,12,03,11,39,285.30
2013,12,03,11,40,287.20
2013,12,03,11,41,288.00
2013,12,03,11,42,288.00
2013,12,03,11,43,288.00
2013,12,03,11,44,288.70
2013,12,03,11,45,290.00
2013,12,03,11,46,290.90
2013,12,03,11,47,292.00
2013,12,03,11,48,293.00
2013,12,03,11,49,294.00
2013,12,03,11,50,294.00
2013,12,03,11,51,294.60
2013,12,03,11,52,294.30
2013,12,03,11,53,294.80
2013,12,03,11,54,295.00
2013,12,03,11,55,295.00
2013,12,03,11,56,295.00
2013,12,03,11,57,296.80
2013,12,03,11,58,295.20
2013,12,03,11,59,295.00
2013,12,03,12,00,297.00
2013,12,03,12,01,297.00
2013,12,03,12,02,297.00
2013,12,03,12,03,297.00
2013,12,03,12,04,297.00
2013,12,03,12,05,297.00
2013,12,03,12,06,297.60
2013,12,03,12,07,299.00
2013,12,03,12,08,299.00
2013,12,03,12,09,299.00
2013,12,03,12,10,298.10
2013,12,03,12,11,298.00
2013,12,03,12,12,299.00
2013,12,03,12,13,299.00
2013,12,03,12,14,299.00
2013,12,03,12,15,299.00
2013,12,03,12,16,300.50
2013,12,03,12,17,299.50
2013,12,03,12,18,300.60
2013,12,03,12,19,299.30
2013,12,03,12,20,300.80
2013,12,03,12,21,301.00
2013,12,03,12,22,299.10
2013,12,03,12,23,301.00
2013,12,03,12,24,301.00
2013,12,03,12,25,300.70
2013,12,03,12,26,298.60
2013,12,03,12,27,298.00
2013,12,03,12,28,301.00
2013,12,03,12,29,300.40
2013,12,03,12,30,299.70
2013,12,03,12,31,300.20
2013,12,03,12,32,299.00
2013,12,03,12,33,299.00
2013,12,03,12,34,298.00
2013,12,03,12,35,297.00
2013,12,03,12,36,295.80
2013,12,03,12,37,295.00
2013,12,03,12,38,295.00
2013,12,03,12,39,295.00
2013,12,03,12,40,295.00
2013,12,03,12,41,295.00
2013,12,03,12,42,295.00
2013,12,03,12,43,294.10
2013,12,03,12,44,292.10
2013,12,03,12,45,293.90
2013,12,03,12,46,293.90
2013,12,03,12,47,292.20
2013,12,03,12,48,294.00
2013,12,03,12,49,293.60
2013,12,03,12,50,292.00
2013,12,03,12,51,292.00
2013,12,03,12,52,292.00
2013,12,03,12,53,292.00
2013,12,03,12,54,291.20
2013,12,03,12,55,290.00
2013,12,03,12,56,290.00
2013,12,03,12,57,290.00
2013,12,03,12,58,288.90
2013,12,03,12,59,288.00
2013,12,03,13,00,288.00
2013,12,03,13,01,288.00
2013,12,03,13,02,287.20
2013,12,03,13,03,285.40
2013,12,03,13,04,285.00
2013,12,03,13,05,285.00
2013,12,03,13,06,283.20
2013,12,03,13,07,283.00
2013,12,03,13,08,282.90
2013,12,03,13,09,281.00
2013,12,03,13,10,280.70
2013,12,03,13,11,278.00
2013,12,03,13,12,278.00
2013,12,03,13,13,277.50
2013,12,03,13,14,276.00
2013,12,03,13,15,276.00
2013,12,03,13,16,275.30
2013,12,03,13,17,273.20
2013,12,03,13,18,271.60
2013,12,03,13,19,271.50
2013,12,03,13,20,271.50
2013,12,03,13,21,271.00
2013,12,03,13,22,271.00
2013,12,03,13,23,269.70
2013,12,03,13,24,269.00
2013,12,03,13,25,267.50
2013,12,03,13,26,267.00
2013,12,03,13,27,265.40
2013,12,03,13,28,264.20
2013,12,03,13,29,264.00
2013,12,03,13,30,262.20
2013,12,03,13,31,262.00
2013,12,03,13,32,259.90
2013,12,03,13,33,257.20
2013,12,03,13,34,243.10
2013,12,03,13,35,191.60
2013,12,03,13,36,120.60
2013,12,03,13,37,61.20
2013,12,03,13,38,62.90
2013,12,03,13,39,117.30
2013,12,03,13,40,116.80
2013,12,03,13,41,60.10
2013,12,03,13,42,34.00
2013,12,03,13,43,34.10
2013,12,03,13,44,33.90
2013,12,03,13,45,33.00
2013,12,03,13,46,33.00
2013,12,03,13,47,33.00
2013,12,03,13,48,32.30
2013,12,03,13,49,32.00
2013,12,03,13,50,32.00
2013,12,03,13,51,32.00
2013,12,03,13,52,32.00
2013,12,03,13,53,32.00
2013,12,03,13,54,32.00
2013,12,03,13,55,32.00
2013,12,03,13,56,32.00
2013,12,03,13,57,32.00
2013,12,03,13,58,32.00
2013,12,03,13,59,33.00
2013,12,03,14,00,37.80
2013,12,03,14,01,42.60
2013,12,03,14,02,51.50
2013,12,03,14,03,52.40
2013,12,03,14,04,44.80
2013,12,03,14,05,40.60
2013,12,03,14,06,44.30
2013,12,03,14,07,60.00
2013,12,03,14,08,74.70
2013,12,03,14,09,67.90
2013,12,03,14,10,51.10
2013,12,03,14,11,44.60
2013,12,03,14,12,38.50
2013,12,03,14,13,37.00
2013,12,03,14,14,32.80
2013,12,03,14,15,32.00
2013,12,03,14,16,36.50
2013,12,03,14,17,41.80
2013,12,03,14,18,39.00
2013,12,03,14,19,42.70
2013,12,03,14,20,46.90
2013,12,03,14,21,35.60
2013,12,03,14,22,40.90
2013,12,03,14,23,58.70
2013,12,03,14,24,96.20
2013,12,03,14,25,121.10
2013,12,03,14,26,123.70
2013,12,03,14,27,120.30
2013,12,03,14,28,99.20
2013,12,03,14,29,81.00
2013,12,03,14,30,67.20
2013,12,03,14,31,42.80
2013,12,03,14,32,32.00
2013,12,03,14,33,30.70
2013,12,03,14,34,28.60
2013,12,03,14,35,28.00
2013,12,03,14,36,28.00
2013,12,03,14,37,28.00
2013,12,03,14,38,28.00
2013,12,03,14,39,28.00
2013,12,03,14,40,28.00
2013,12,03,14,41,28.00
2013,12,03,14,42,28.00
2013,12,03,14,43,28.00
2013,12,03,14,44,28.00
2013,12,03,14,45,28.00
2013,12,03,14,46,28.00
2013,12,03,14,47,28.00
2013,12,03,14,48,27.30
2013,12,03,14,49,26.00
2013,12,03,14,50,26.00
2013,12,03,14,51,26.00
2013,12,03,14,52,26.00
2013,12,03,14,53,26.00
2013,12,03,14,54,26.00
2013,12,03,14,55,26.00
2013,12,03,14,56,26.00
2013,12,03,14,57,26.00
2013,12,03,14,58,25.30
2013,12,03,14,59,25.00
2013,12,03,15,00,25.00
2013,12,03,15,01,25.00
2013,12,03,15,02,25.00
2013,12,03,15,03,25.00
2013,12,03,15,04,25.00
2013,12,03,15,05,25.00
2013,12,03,15,06,25.00
2013,12,03,15,07,25.00
2013,12,03,15,08,24.60
2013,12,03,15,09,23.00
2013,12,03,15,10,23.00
2013,12,03,15,11,23.00
2013,12,03,15,12,23.00
2013,12,03,15,13,23.00
2013,12,03,15,14,23.00
2013,12,03,15,15,23.00
2013,12,03,15,16,23.00
2013,12,03,15,17,23.00
2013,12,03,15,18,21.70
2013,12,03,15,19,21.00
2013,12,03,15,20,21.00
2013,12,03,15,21,21.00
2013,12,03,15,22,21.00
2013,12,03,15,23,21.00
2013,12,03,15,24,21.00
2013,12,03,15,25,21.00
2013,12,03,15,26,21.00
2013,12,03,15,27,20.90
2013,12,03,15,28,19.00
2013,12,03,15,29,19.00
2013,12,03,15,30,19.00
2013,12,03,15,31,19.00
2013,12,03,15,32,19.00
2013,12,03,15,33,19.00
2013,12,03,15,34,18.60
2013,12,03,15,35,18.00
2013,12,03,15,36,18.00
2013,12,03,15,37,18.00
2013,12,03,15,38,18.00
2013,12,03,15,39,18.00
2013,12,03,15,40,18.00
2013,12,03,15,41,18.00
2013,12,03,15,42,16.70
2013,12,03,15,43,16.00
2013,12,03,15,44,16.00
2013,12,03,15,45,16.00
2013,12,03,15,46,16.00
2013,12,03,15,47,16.00
2013,12,03,15,48,16.00
2013,12,03,15,49,14.10
2013,12,03,15,50,14.00
2013,12,03,15,51,14.00
2013,12,03,15,52,14.00
2013,12,03,15,53,14.00
2013,12,03,15,54,13.60
2013,12,03,15,55,12.00
2013,12,03,15,56,12.00
2013,12,03,15,57,12.00
2013,12,03,15,58,12.00
2013,12,03,15,59,11.60
2013,12,03,16,00,11.00
2013,12,03,16,01,11.00
2013,12,03,16,02,11.00
2013,12,03,16,03,11.00
2013,12,03,16,04,9.80
2013,12,03,16,05,9.00
2013,12,03,16,06,9.00
2013,12,03,16,07,9.00
2013,12,03,16,08,9.00
2013,12,03,16,09,7.30
2013,12,03,16,10,7.00
2013,12,03,16,11,7.00
2013,12,03,16,12,7.00
2013,12,03,16,13,7.00
2013,12,03,16,14,6.80
2013,12,03,16,15,5.00
2013,12,03,16,16,5.00
2013,12,03,16,17,5.00
2013,12,03,16,18,5.00
2013,12,03,16,19,5.00
2013,12,03,16,20,5.00
2013,12,03,16,21,3.20
2013,12,03,16,22,0.00
2013,12,03,16,23,0.00
2013,12,03,16,24,0.00
2013,12,03,16,25,0.00
2013,12,03,16,26,0.00
2013,12,03,16,27,0.00
2013,12,03,16,28,0.00
2013,12,03,16,29,0.00
2013,12,03,16,30,0.00
2013,12,03,16,31,0.00
2013,12,03,16,32,0.00
2013,12,03,16,33,0.00
2013,12,03,16,34,0.00
2013,12,03,16,35,0.00
2013,12,03,16,36,0.00
2013,12,03,16,37,0.00
2013,12,03,16,38,0.00
2013,12,03,16,39,0.00
2013,12,03,16,40,0.00
2013,12,03,16,41,0.00
2013,12,03,16,42,0.00
2013,12,03,16,43,0.00
2013,12,03,16,44,0.00
2013,12,03,16,45,0.00
2013,12,03,16,46,0.00
2013,12,03,16,47,0.00
2013,12,03,16,48,0.00
2013,12,03,16,49,0.00
2013,12,03,16,50,0.00
2013,12,03,16,51,0.00
2013,12,03,16,52,0.00
2013,12,03,16,53,0.00
2013,12,03,16,54,0.00
2013,12,03,16,55,0.00
2013,12,03,16,56,0.00
2013,12,03,16,57,0.00
2013,12,03,16,58,0.00
2013,12,03,16,59,0.00
2013,12,03,17,00,0.00
2013,12,03,17,01,0.00
2013,12,03,17,02,0.00
2013,12,03,17,03,0.00
2013,12,03,17,04,0.00
2013,12,03,17,05,0.00
2013,12,03,17,06,0.00
2013,12,03,17,07,0.00
2013,12,03,17,08,0.00
2013,12,03,17,09,0.00
2013,12,03,17,10,0.00
2013,12,03,17,11,0.00
2013,12,03,17,12,0.00
2013,12,03,17,13,0.00
2013,12,03,17,14,0.00
2013,12,03,17,15,0.00
2013,12,03,17,16,0.00
2013,12,03,17,17,0.00
2013,12,03,17,18,0.00
2013,12,03,17,19,0.00
2013,12,03,17,20,0.00
2013,12,03,17,21,0.00
2013,12,03,17,22,0.00
2013,12,03,17,23,0.00
2013,12,03,17,24,0.00
2013,12,03,17,25,0.00
2013,12,03,17,26,0.00
2013,12,03,17,27,0.00
2013,12,03,17,28,0.00
2013,12,03,17,29,0.00
2013,12,03,17,30,0.00
2013,12,03,17,31,0.00
2013,12,03,17,32,0.00
2013,12,03,17,33,0.00
2013,12,03,17,34,0.00
2013,12,03,17,35,0.00
2013,12,03,17,36,0.00